Time,TemperatureF,DewpointF,PressureIn,WindDirection,WindDirectionDegrees,WindSpeedMPH,WindSpeedGustMPH,Humidity,HourlyPrecipIn,Conditions,Clouds,dailyrainin,SolarRadiationWatts/m^2,SoftwareType,DateUTC
2013-07-23 00:01:00,62.0,29.0,-100.00,NW,325,2.0,6.0,28,0.00,,,0.00,1.000000,,2013-07-23 06:01:00,
2013-07-23 00:11:00,62.0,29.0,-100.00,NW,325,2.0,6.0,28,0.00,,,0.00,1.000000,,2013-07-23 06:11:00,
2013-07-23 00:42:00,59.0,28.0,-100.00,NW,322,3.0,6.0,30,0.00,,,0.00,0.000000,,2013-07-23 06:42:00,
2013-07-23 00:52:00,59.0,28.0,-100.00,NW,322,3.0,6.0,30,0.00,,,0.00,0.000000,,2013-07-23 06:52:00,
2013-07-23 01:01:00,59.0,28.0,-100.00,NW,322,3.0,6.0,30,0.00,,,0.00,0.000000,,2013-07-23 07:01:00,
2013-07-23 01:11:00,59.0,28.0,-100.00,NW,322,3.0,6.0,30,0.00,,,0.00,0.000000,,2013-07-23 07:11:00,
2013-07-23 01:42:00,59.0,26.0,-100.00,NNW,340,2.0,6.0,28,0.00,,,0.00,0.000000,,2013-07-23 07:42:00,
2013-07-23 01:52:00,59.0,26.0,-100.00,NNW,340,2.0,6.0,28,0.00,,,0.00,0.000000,,2013-07-23 07:52:00,
2013-07-23 02:01:00,59.0,26.0,-100.00,NNW,340,2.0,6.0,28,0.00,,,0.00,0.000000,,2013-07-23 08:01:00,
2013-07-23 02:11:00,59.0,26.0,-100.00,NNW,340,2.0,6.0,28,0.00,,,0.00,0.000000,,2013-07-23 08:11:00,
2013-07-23 02:43:00,57.0,27.0,-100.00,WSW,250,3.0,4.0,32,0.00,,,0.00,0.000000,,2013-07-23 08:43:00,
2013-07-23 02:52:00,57.0,27.0,-100.00,WSW,250,3.0,4.0,32,0.00,,,0.00,0.000000,,2013-07-23 08:52:00,
2013-07-23 03:01:00,57.0,27.0,-100.00,WSW,250,3.0,4.0,32,0.00,,,0.00,0.000000,,2013-07-23 09:01:00,
2013-07-23 03:11:00,57.0,27.0,-100.00,WSW,250,3.0,4.0,32,0.00,,,0.00,0.000000,,2013-07-23 09:11:00,
2013-07-23 03:43:00,58.0,27.0,-100.00,WNW,301,2.0,3.0,30,0.00,,,0.00,0.000000,,2013-07-23 09:43:00,
2013-07-23 03:53:00,58.0,27.0,-100.00,WNW,301,2.0,3.0,30,0.00,,,0.00,0.000000,,2013-07-23 09:53:00,
2013-07-23 04:01:00,58.0,27.0,-100.00,WNW,301,2.0,3.0,30,0.00,,,0.00,0.000000,,2013-07-23 10:01:00,
2013-07-23 04:11:00,58.0,27.0,-100.00,WNW,301,2.0,3.0,30,0.00,,,0.00,0.000000,,2013-07-23 10:11:00,
2013-07-23 04:44:00,58.0,24.0,-100.00,NNW,340,1.0,4.0,27,0.00,,,-99.99,0.000000,,2013-07-23 10:44:00,
2013-07-23 04:52:00,58.0,24.0,-100.00,NNW,340,1.0,4.0,27,0.00,,,-99.99,0.000000,,2013-07-23 10:52:00,
2013-07-23 05:01:00,58.0,24.0,-100.00,NNW,340,1.0,4.0,27,0.00,,,-99.99,0.000000,,2013-07-23 11:01:00,
2013-07-23 05:11:00,58.0,24.0,-100.00,NNW,340,1.0,4.0,27,0.00,,,-99.99,0.000000,,2013-07-23 11:11:00,
2013-07-23 05:43:00,60.0,24.0,-100.00,NNE,26,1.0,4.0,25,0.00,,,0.00,0.000000,,2013-07-23 11:43:00,
2013-07-23 05:52:00,60.0,24.0,-100.00,NNE,26,1.0,4.0,25,0.00,,,0.00,0.000000,,2013-07-23 11:52:00,
2013-07-23 06:43:00,58.0,25.0,-100.00,NW,321,2.0,4.0,28,0.00,,,0.00,0.000000,,2013-07-23 12:43:00,
2013-07-23 07:01:00,58.0,25.0,-100.00,NW,321,2.0,4.0,28,0.00,,,0.00,0.000000,,2013-07-23 13:01:00,
2013-07-23 07:11:00,58.0,25.0,-100.00,NW,321,2.0,4.0,28,0.00,,,0.00,0.000000,,2013-07-23 13:11:00,
2013-07-23 07:43:00,57.0,26.0,-100.00,NNW,347,3.0,4.0,30,0.00,,,0.00,1.000000,,2013-07-23 13:43:00,
2013-07-23 07:52:00,57.0,26.0,-100.00,NNW,347,3.0,4.0,30,0.00,,,0.00,1.000000,,2013-07-23 13:52:00,
2013-07-23 08:02:00,57.0,26.0,-100.00,NNW,347,3.0,4.0,30,0.00,,,0.00,1.000000,,2013-07-23 14:02:00,
2013-07-23 08:12:00,57.0,26.0,-100.00,NNW,347,3.0,4.0,30,0.00,,,0.00,1.000000,,2013-07-23 14:12:00,
2013-07-23 08:44:00,58.0,28.0,-100.00,NNW,332,2.0,3.0,31,0.00,,,0.00,37.000000,,2013-07-23 14:44:00,
2013-07-23 08:53:00,58.0,28.0,-100.00,NNW,332,2.0,3.0,31,0.00,,,0.00,37.000000,,2013-07-23 14:53:00,
2013-07-23 09:03:00,58.0,28.0,-100.00,NNW,332,2.0,3.0,31,0.00,,,0.00,37.000000,,2013-07-23 15:03:00,
2013-07-23 09:11:00,58.0,28.0,-100.00,NNW,332,2.0,3.0,31,0.00,,,0.00,37.000000,,2013-07-23 15:11:00,
2013-07-23 09:43:00,59.0,31.0,-100.00,NW,312,2.0,4.0,35,0.00,,,0.00,83.000000,,2013-07-23 15:43:00,
2013-07-23 09:52:00,59.0,31.0,-100.00,NW,312,2.0,4.0,35,0.00,,,0.00,83.000000,,2013-07-23 15:52:00,
2013-07-23 10:01:00,59.0,31.0,-100.00,NW,312,2.0,4.0,35,0.00,,,0.00,83.000000,,2013-07-23 16:01:00,
2013-07-23 10:12:00,59.0,31.0,-100.00,NW,312,2.0,4.0,35,0.00,,,0.00,83.000000,,2013-07-23 16:12:00,
2013-07-23 10:43:00,67.0,30.0,-100.00,SW,217,1.0,4.0,25,0.00,,,0.00,502.000000,,2013-07-23 16:43:00,
2013-07-23 10:52:00,67.0,30.0,-100.00,SW,217,1.0,4.0,25,0.00,,,0.00,502.000000,,2013-07-23 16:52:00,
2013-07-23 11:02:00,67.0,30.0,-100.00,SW,217,1.0,4.0,25,0.00,,,0.00,502.000000,,2013-07-23 17:02:00,
2013-07-23 11:11:00,67.0,30.0,-100.00,SW,217,1.0,4.0,25,0.00,,,0.00,502.000000,,2013-07-23 17:11:00,
2013-07-23 11:42:00,70.0,32.0,-100.00,SSW,200,2.0,5.0,24,0.00,,,0.00,726.000000,,2013-07-23 17:42:00,
2013-07-23 11:56:00,70.0,32.0,-100.00,SSW,200,2.0,5.0,24,0.00,,,0.00,726.000000,,2013-07-23 17:56:00,
2013-07-23 12:02:00,70.0,32.0,-100.00,SSW,200,2.0,5.0,24,0.00,,,0.00,726.000000,,2013-07-23 18:02:00,
2013-07-23 12:11:00,70.0,32.0,-100.00,SSW,200,2.0,5.0,24,0.00,,,0.00,726.000000,,2013-07-23 18:11:00,
2013-07-23 12:48:00,73.0,27.0,-100.00,SW,217,2.0,6.0,18,0.00,,,0.00,902.000000,,2013-07-23 18:48:00,
2013-07-23 12:56:00,73.0,27.0,-100.00,SW,217,2.0,6.0,18,0.00,,,0.00,902.000000,,2013-07-23 18:56:00,
2013-07-23 13:01:00,73.0,27.0,-100.00,SW,217,2.0,6.0,18,0.00,,,0.00,902.000000,,2013-07-23 19:01:00,
2013-07-23 13:12:00,73.0,27.0,-100.00,SW,217,2.0,6.0,18,0.00,,,0.00,902.000000,,2013-07-23 19:12:00,
2013-07-23 13:48:00,77.0,30.0,-100.00,SW,217,2.0,6.0,18,0.00,,,0.00,1034.000000,,2013-07-23 19:48:00,
2013-07-23 13:55:00,77.0,30.0,-100.00,SW,217,2.0,6.0,18,0.00,,,0.00,1034.000000,,2013-07-23 19:55:00,
2013-07-23 14:03:00,77.0,30.0,-100.00,SW,217,2.0,6.0,18,0.00,,,0.00,1034.000000,,2013-07-23 20:03:00,
2013-07-23 14:47:00,81.0,29.0,-100.00,SSW,206,4.0,9.0,15,0.00,,,0.00,1109.000000,,2013-07-23 20:47:00,
2013-07-23 14:58:00,81.0,29.0,-100.00,SSW,206,4.0,9.0,15,0.00,,,0.00,1109.000000,,2013-07-23 20:58:00,
2013-07-23 15:12:00,81.0,29.0,-100.00,SSW,206,4.0,9.0,15,0.00,,,0.00,1109.000000,,2013-07-23 21:12:00,
2013-07-23 15:47:00,82.0,31.0,-100.00,SSW,207,4.0,7.0,16,0.00,,,0.00,1127.000000,,2013-07-23 21:47:00,
2013-07-23 15:56:00,82.0,31.0,-100.00,SSW,207,4.0,7.0,16,0.00,,,0.00,1127.000000,,2013-07-23 21:56:00,
2013-07-23 16:11:00,82.0,31.0,-100.00,SSW,207,4.0,7.0,16,0.00,,,0.00,1127.000000,,2013-07-23 22:11:00,
2013-07-23 16:47:00,82.0,26.0,-100.00,SSW,194,4.0,7.0,13,0.00,,,0.00,1142.000000,,2013-07-23 22:47:00,
2013-07-23 16:58:00,82.0,26.0,-100.00,SSW,194,4.0,7.0,13,0.00,,,0.00,1142.000000,,2013-07-23 22:58:00,
2013-07-23 17:12:00,82.0,26.0,-100.00,SSW,194,4.0,7.0,13,0.00,,,0.00,1142.000000,,2013-07-23 23:12:00,
2013-07-23 17:58:00,84.0,24.0,-100.00,SSW,206,4.0,8.0,11,0.00,,,0.00,1091.000000,,2013-07-23 23:58:00,
2013-07-23 18:50:00,83.0,21.0,-100.00,SSW,200,3.0,8.0,10,0.00,,,0.00,856.000000,,2013-07-24 00:50:00,
2013-07-23 19:03:00,83.0,21.0,-100.00,SSW,200,3.0,8.0,10,0.00,,,0.00,856.000000,,2013-07-24 01:03:00,
2013-07-23 19:58:00,80.0,23.0,-100.00,SE,146,3.0,10.0,12,0.00,,,-99.99,281.000000,,2013-07-24 01:58:00,
2013-07-23 20:12:00,80.0,23.0,-100.00,SE,146,3.0,10.0,12,0.00,,,-99.99,281.000000,,2013-07-24 02:12:00,
2013-07-23 20:40:00,75.0,24.0,-100.00,South,183,2.0,7.0,15,0.00,,,0.00,105.000000,,2013-07-24 02:40:00,
2013-07-23 20:56:00,75.0,24.0,-100.00,South,183,2.0,7.0,15,0.00,,,0.00,105.000000,,2013-07-24 02:56:00,
2013-07-23 21:02:00,75.0,24.0,-100.00,South,183,2.0,7.0,15,0.00,,,0.00,105.000000,,2013-07-24 03:02:00,
2013-07-23 21:11:00,75.0,24.0,-100.00,South,183,2.0,7.0,15,0.00,,,0.00,105.000000,,2013-07-24 03:11:00,
2013-07-23 21:39:00,71.0,24.0,-100.00,North,0,2.0,5.0,17,0.00,,,0.00,63.000000,,2013-07-24 03:39:00,
2013-07-23 21:46:00,71.0,24.0,-100.00,North,0,2.0,5.0,17,0.00,,,0.00,63.000000,,2013-07-24 03:46:00,
2013-07-23 21:56:00,71.0,24.0,-100.00,North,0,2.0,5.0,17,0.00,,,0.00,63.000000,,2013-07-24 03:56:00,
2013-07-23 22:01:00,71.0,24.0,-100.00,North,0,2.0,5.0,17,0.00,,,0.00,63.000000,,2013-07-24 04:01:00,
2013-07-23 22:11:00,71.0,24.0,-100.00,North,0,2.0,5.0,17,0.00,,,0.00,63.000000,,2013-07-24 04:11:00,
2013-07-23 22:43:00,70.0,23.0,-100.00,NNW,333,2.0,4.0,17,0.00,,,0.00,16.000000,,2013-07-24 04:43:00,
2013-07-23 22:53:00,70.0,23.0,-100.00,NNW,333,2.0,4.0,17,0.00,,,0.00,16.000000,,2013-07-24 04:53:00,
2013-07-23 23:02:00,70.0,23.0,-100.00,NNW,333,2.0,4.0,17,0.00,,,0.00,16.000000,,2013-07-24 05:02:00,
2013-07-23 23:11:00,70.0,23.0,-100.00,NNW,333,2.0,4.0,17,0.00,,,0.00,16.000000,,2013-07-24 05:11:00,
2013-07-23 23:43:00,70.0,20.0,-100.00,NNW,342,2.0,5.0,15,0.00,,,0.00,2.000000,,2013-07-24 05:43:00,
2013-07-23 23:52:00,70.0,20.0,-100.00,NNW,342,2.0,5.0,15,0.00,,,0.00,2.000000,,2013-07-24 05:52:00,